"Pseudo-MPEC" for A115LYP

Created 2024 May 8 4:22:02 UT using Find_Orb

Click here for an explanation of pseudo-MPECs

 
 Astrometry: 
     A115LYP* C2024 04 10!(+dOvGB#RY%BhD:y]ZqP/Vm-?%79?yDIOEERQ$1tmflkF(:=XJtW68
     A115LYP  C2024 04 10L1m+,1A_/D5UjA,n-Z;s'aSMimjHqN(1Y*rD1SJFbnBocO)XH0s!W68
     A115LYP  C2024 04 107=n\e@mHfL-8J3I#7pf,l5IA[C)UDtrlV721^5w0vi4/87bW`TFcW68
     A115LYP  C2024 04 16ueErHTpB=y=Od!ae:Py#BjX+_H\5g'-55$X;A1XJu3C6R]@+;buMX09
     A115LYP  C2024 04 16mQE-'Bg.)Wwa58(J-u]Peig_t\Gp/oGUV!\xiE[FBC5[K5+2dCb)X09
     A115LYP  C2024 04 162*h-fiWv^X+nZgl#f(#/K8DP')cE%N9/pP_1xi1l#R9Z?A](lOLvX09
     A115LYP  C2024 04 160/_U6e])NS)Xmn^k7I7;POuK3#q)nM8S\Nr@1!MnYtbr?uWowaDLX09
     A115LYP  C2024 04 1631)^N2RU%`7-2W?3_3GYvsyPnVyFqwr^/VC7hOlm5)!;tiT-63]cX09
     A115LYP 1C2024 04 162gXB@XnPR',OrO%dvnGQpK`p3P*p:p8LmX*av4mWuCOJmJoRA1#[Q62
     A115LYP 1C2024 04 16(j1f;%6SQ)e[Dplski#okpo;e!6wYqYI]ydb5q:s]OqyEcrjRO9wQ62
     A115LYP 0B2024 04 17Fcmed)CUuG8N1Td)n7fx.?Crkh$A[gAstrometryDIRcRo`aD-SsM49
     A115LYP 0B2024 04 17?.7VNBT6aR.RtgsUi:T8m=D#`:193*!$`2,(fCir+ulroH;cVS0sM49
     A115LYP 0B2024 04 17RLP8Aa+.Ea3+ssg_V2H,$tU6\CO/OU`gv!M+G4r,-ktFb*Xd67^kM49
     A115LYP #C2024 04 18qN0Tr9cGHIiEKp*L*V2kG,kckJM';2M2`7@2P^4x-Ww2M[817K91L81
     A115LYP #C2024 04 18mq*^f1yV?CR#W*e4\Q;=DL/oNredacted;ZuX7mbuYX`2ib,2ncCL81
     A115LYP KC2024 04 18xNW4Zr,$DoMLq-G)xnFs($3:muFYidBl3VL_*)1W/\?1f=%2k-j$I47
     A115LYP KC2024 04 18^T=wftsY-*_mFjPX!`:tqZlPl]8];:uIl!]@tNXUclickA%EK7G1I47
     A115LYP KC2024 04 19+u\fg32JKo@?DC5kDr1?h_wDZVi,mjqyf.eSuwXFGR?EuTjhere@M21
     A115LYP KC2024 04 19M9o;j9P!]6H'aGGofUj3j??/:d/4ke'`ZLT0M7urbw@W=uH[blT'M21
     A115LYP 3C2024 04 19su@\deGEK[qYlxJFtC.K=@h8B$T4X5j+d0gNuhN!JEZpD_r(%CyEW88
     A115LYP 3C2024 04 191kg5E!H4lSxVu'R=U-ATA7R.Jb3GaX3REQ$eF2#-EU$TbFb]7;dyW88
     A115LYP 3C2024 04 20?L2A4D.@C0rD5]jGUm.f.fq$f@#_ljZh4U2yM0hdTi@Qt$=]w*.SX07
     A115LYP 3C2024 04 20bts?3?/nTx(cd[6tITN8N*i#c-``knm-B@L/96#mh,VRAFkU.))9X07
     A115LYP KB2024 04 22M,4F%:/26O8FhN#6cFH+mNv]Y+v,lR@8ny-Wew,$CN,!#deKo2k4Y05
     A115LYP KB2024 04 227%s31e?,$3+1jK.PO,X5-w8qbdAt2bU7[B#Ga/%tnj?RnH8L^EIvY05
     A115LYP 0B2024 04 22qe:l9X$!3p7UM86=j*a.J9VLR)0Q,arUne4MA!CXWJJM`gj(nA]uM49
     A115LYP 0B2024 04 22M@_%LF'xVvjI_EF=VpA*0.j(I1?D__)df*Ed`A(*DAOj8`:YjJAFM49
     A115LYP 0B2024 04 22%1((CH\-/smE8-Atkeu0T[J4%O/K.AS6d!c%6My(Z@#`s!p'6to;M49
     A115LYP KC2024 04 23I%f1F?Gdu=8CNJqW*lfor4dRaeh!P8=\e=V3[QPyiMqqwhN\ZFf#X03
     A115LYP KC2024 04 23fBFAs^8MUt8LPK-[V`$)Wv[yJ=4A=x)wDKp\=Ck7[=Ba$#=(u$5OX03
     A115LYP KC2024 04 23(Rc#J=S:X0]u-(gi/P$2Gwn!rL7!/id2m\4Gv5YaL/nTv]T+g3qhX03
     A115LYP KC2024 04 27d@j\l'8!J4^?5kxvq-DL)\Zh#G:l1Z\HLc:(gp+ULJD#t5d;HTP6E94
     A115LYP KC2024 04 27XQ*J=d`?kIYMjOCv^o(gWVWBOrD)4aT?1K)qjNtI!?RDo7nI?['vE94
     A115LYP KC2024 04 27l#KeG.A[pO[^-jf[mhFfo]4?VJ,#1'explanation$@#_6R:KSRXE94
     A115LYP  C2024 05 02wnk`nkMN;7^e7k(n/rBf12?%8rWJIP:jg+q+33vrx3=[sjSpVd(uW68
     A115LYP  C2024 05 02DtG!Eq+cevPKG58Z1dYx'_Y!Ofq`+S[ON]*M.66sfADgV]HBG't)W68
     A115LYP  C2024 05 02@T^J@U0KbETj\_=jO.doOb\_y*'!e^,0B0*Qt09sd^VI!x/dm8'PW68
     A115LYP  C2024 05 02xZ4Y[5s`E;pPlD:`=$DsNytLc8t!s$ST83i8cxHXHRKlledJc7xbW68
     A115LYP 0B2024 05 04e%%$y[Q#h_oU).XF`Z$/f)U2n?\W15tv:STm4,JWE?2NMjth$SQjM49
     A115LYP 0B2024 05 04\,Q9b7N\3h6h5$N_[s$n,8vt=O%afed=kW%\+JM,lb0tGFm%nIe`M49
     A115LYP 0B2024 05 04F9#Oe;*)2O`l2E.6r:\Z$V[$#:rMYM?6V8UrB^^qxP]w8MoR/)1eM49

Station data:
(E94) Gisborne (Possum Observatory)  (S38.629920 E177.883310)  New Zealand.
   Observer J. Drummond. 0.41-m f/4.5 Newtonian reflector + CCD.
(I47) Pierre Auger Observatory, Malargüe  (S35.495440 W69.449700)  Argentina.
    Observer M. Mašek. 0.3-m f/6.8 reflector + CCD.
(L81) Skygems Namibia Remote Observatory  (S23.236420 E16.361690)  Namibia.
   Observer D. De Martin. Measurers L. Buzzi, G. Galli, A. Aletti. 0.51-m
   f/6.7 astrograph + CCD.
(M21) Schiaparelli Southern Observatory, Hakos  (S23.236549 E16.361440)
   Namibia.  Observers A. Aletti, F. Bellini, L. Buzzi, G. Galli. Measurer L.
   Buzzi. 0.36-m f/8.4 reflector + CCD.
(M49) IAS Remote Observatory, Hakos  (S23.236549 E16.361720)  Namibia.
   Observers D. Husar, M. Junius. Measurer D. Husar. 0.25-m f/4.6 reflector +
   CCD.
(Q62) iTelescope Observatory, Siding Spring  (S31.273286 E149.064420)
   Australia/NSW.  Observer H. Sato. 0.51-m f/6.8 astrograph + CCD + f/4.5
   focal reducer0.43-m f/6.8 astrograph + CCD + focal reducer0.43-m f/6.8
   astrograph + CCD0.10-m f/5 astrograph + CCD0.127-m f/5.6 refractor +
   CCD0.50-m f/6.8 reflector + CCD0.30-m f/9 reflector + CCD.
(W68) ATLAS Chile, Rio Hurtado  (S30.471010 W70.764980)  Chile.  Observers L.
   Denneau, R. Siverd, J. Tonry, H. Weiland. Measurers L. Denneau, N.
   Erasmus, A. Fitzsimmons, A. Lawrence, J. Robinson, R. Siverd, J. Tonry, H.
   Weiland. 0.5-m reflector + CCD.
(W88) Slooh.com Chile Observatory, La Dehesa  (S33.269126 W70.534300)  Chile.
    Observer B. Lütkenhöner. Measurers B. Lutkenhoner, G. Gašparović, Y.
   Chen, G. Y. Gašparović, M. Kumrucu-Lohmiller, N. Paul, R. W. Anderson.
   0.43-m f/6.8 Corrected Dall- Kirkham + CCD0.35-m f/11.0 Schmidt-Cassegrain
   + CCD.
(X03) Observatoire SADR, Poroto  (S30.533914 W70.796390)  Chile.  Observers
   J. L. Virlichie, P. Traverse. 0.35-m f/4.7 Newtonian reflector + CCD.
(X07) iTelescope Deep Sky Chile, Rio Hurtado  (S30.526389 W70.853610)  Chile.
    Observer H. Sato. 0.51-m f/6.8 astrograph + CCD.
(X09) Deep Random Survey, Rio Hurtado  (S30.526310 W70.853300)  Chile.
(Y05) SONEAR Wykrota-CEAMIG, Serra da Piedade  (S19.824251 W43.690000)
   Brazil.  Observer C. Jacques. 0.45-m f/2.9 reflector + CMO.

Orbital elements:  A115LYP
   Perihelion 2026 Feb 21.38141 +/- 0.639 TT =  9:09:14 (JD 2461092.88141)
Epoch 2024 May  4.0 TT = JDT 2460434.5                           AutoNEOCP
q   6.42790796 +/- 0.0077           (J2000 ecliptic)
H    9.75 G 0.15                    Peri.   23.48943 +/- 0.11
                                    Node   250.96611 +/- 0.010
e   1.0000000 +/- 0                 Incl.  120.42993 +/- 0.020
37 of 41 observations 2024 Apr. 10-May 4; mean residual 0".43
Residuals in arcseconds: 
240410 W68  .16-  1.0-    240418 L81  .46+  .43-    240423 X03  .52+  .61-    
240410 W68  .22-  .66-    240418 I47  .05+  .56+    240423 X03( 1.1-  1.5-)   
240410 W68  .06+  .03+    240418 I47  .40-  .11-    240423 X03( .35-  1.9-)   
240416 X09  .16-  .74+    240419 M21  .13-  .01-    240427 E94  .33+  .78-    
240416 X09  .82+  .29+    240419 M21  .38-  .02-    240427 E94  .33+  .31+    
240416 X09  .11+  .08+    240419 W88  .40+  .92+    240427 E94  .40+  .26+    
240416 X09  .45-  .52+    240419 W88  .17+  .54+    240502 W68  .12+  .96-    
240416 X09  .81+  .06+    240420 X07  .36-  .05+    240502 W68  .57-  .85+    
240416 Q62  .04+  .08+    240420 X07  .54-  .28+    240502 W68  .19-  .35+    
240416 Q62  .01-  .14+    240422 Y05( .25-  1.7+)   240502 W68  .23-  1.0-    
240417 M49  .06-  .44-    240422 Y05( 1.6-  1.8+)   240504 M49  .17+  .10-    
240417 M49  .06+  .41-    240422 M49  .30-  .05+    240504 M49  .03+  .18+    
240417 M49  .23-  .36-    240422 M49  .59-  .11+    240504 M49  .01-  .05-    
240418 L81  .53+  .16+    240422 M49  .43-  .54+    

Ephemerides (geocentric):
Date (UTC) HH   RA             Dec           delta  r     elong  mag " sig PA
---- --------  ------------   ------------  ------ ------ -----  --- --------
2024 05 08 04  18 00 02.238   -47 39 55.76  7.0512 7.7680 132.4 18.9 .348 101
2024 05 08 05  18 00 00.224   -47 39 53.87  7.0506 7.7678 132.5 18.9 .350 101
2024 05 08 06  17 59 58.208   -47 39 51.96  7.0500 7.7677 132.5 18.9 .353 101
2024 05 08 07  17 59 56.192   -47 39 50.05  7.0493 7.7675 132.5 18.9 .356 101
2024 05 08 08  17 59 54.174   -47 39 48.13  7.0487 7.7674 132.6 18.9 .358 101
2024 05 08 09  17 59 52.155   -47 39 46.21  7.0481 7.7672 132.6 18.9 .361 101
2024 05 08 10  17 59 50.135   -47 39 44.27  7.0475 7.7671 132.7 18.9 .364 101
2024 05 08 11  17 59 48.113   -47 39 42.33  7.0469 7.7669 132.7 18.9 .366 101
2024 05 08 12  17 59 46.090   -47 39 40.39  7.0462 7.7668 132.7 18.9 .369 101
2024 05 08 13  17 59 44.066   -47 39 38.43  7.0456 7.7666 132.8 18.9 .372 101
2024 05 08 14  17 59 42.040   -47 39 36.47  7.0450 7.7665 132.8 18.9 .374 101
2024 05 08 15  17 59 40.013   -47 39 34.50  7.0444 7.7663 132.9 18.9 .377 101
2024 05 08 16  17 59 37.985   -47 39 32.53  7.0438 7.7662 132.9 18.9 .380 101
2024 05 08 17  17 59 35.956   -47 39 30.55  7.0432 7.7660 132.9 18.9 .382 101
2024 05 08 18  17 59 33.925   -47 39 28.56  7.0425 7.7659 133.0 18.9 .385 101
2024 05 08 19  17 59 31.893   -47 39 26.56  7.0419 7.7657 133.0 18.9 .388 101
2024 05 08 20  17 59 29.860   -47 39 24.56  7.0413 7.7656 133.1 18.9 .391 101
2024 05 08 21  17 59 27.825   -47 39 22.55  7.0407 7.7654 133.1 18.9 .393 101
2024 05 08 22  17 59 25.789   -47 39 20.53  7.0401 7.7653 133.1 18.9 .396 101
2024 05 08 23  17 59 23.752   -47 39 18.50  7.0395 7.7651 133.2 18.9 .399 101
2024 05 09 00  17 59 21.714   -47 39 16.47  7.0389 7.7650 133.2 18.9 .402 101
2024 05 09 01  17 59 19.674   -47 39 14.43  7.0383 7.7648 133.2 18.9 .404 101
2024 05 09 02  17 59 17.633   -47 39 12.38  7.0376 7.7647 133.3 18.9 .407 101
2024 05 09 03  17 59 15.591   -47 39 10.33  7.0370 7.7645 133.3 18.9 .410 101
2024 05 09 04  17 59 13.548   -47 39 08.27  7.0364 7.7644 133.4 18.9 .413 101
2024 05 09 05  17 59 11.503   -47 39 06.20  7.0358 7.7642 133.4 18.9 .416 101
2024 05 09 06  17 59 09.457   -47 39 04.12  7.0352 7.7641 133.4 18.9 .418 101
2024 05 09 07  17 59 07.409   -47 39 02.04  7.0346 7.7639 133.5 18.9 .421 101
2024 05 09 08  17 59 05.361   -47 38 59.95  7.0340 7.7638 133.5 18.9 .424 101
2024 05 09 09  17 59 03.311   -47 38 57.85  7.0334 7.7636 133.6 18.9 .427 101
2024 05 09 10  17 59 01.260   -47 38 55.75  7.0328 7.7635 133.6 18.9 .430 101
2024 05 09 11  17 58 59.208   -47 38 53.64  7.0322 7.7633 133.6 18.9 .433 101
2024 05 09 12  17 58 57.154   -47 38 51.52  7.0316 7.7632 133.7 18.9 .435 101
2024 05 09 13  17 58 55.099   -47 38 49.39  7.0309 7.7630 133.7 18.9 .438 101
2024 05 09 14  17 58 53.043   -47 38 47.26  7.0303 7.7629 133.7 18.9 .441 101
2024 05 09 15  17 58 50.985   -47 38 45.11  7.0297 7.7627 133.8 18.9 .444 101
2024 05 09 16  17 58 48.927   -47 38 42.97  7.0291 7.7626 133.8 18.9 .447 101
2024 05 09 17  17 58 46.867   -47 38 40.81  7.0285 7.7624 133.9 18.9 .450 101
2024 05 09 18  17 58 44.805   -47 38 38.65  7.0279 7.7623 133.9 18.9 .453 101
2024 05 09 19  17 58 42.743   -47 38 36.48  7.0273 7.7621 133.9 18.9 .456 101
2024 05 09 20  17 58 40.679   -47 38 34.30  7.0267 7.7620 134.0 18.9 .459 101
2024 05 09 21  17 58 38.614   -47 38 32.11  7.0261 7.7618 134.0 18.9 .461 101
2024 05 09 22  17 58 36.548   -47 38 29.92  7.0255 7.7616 134.1 18.9 .464 101
2024 05 09 23  17 58 34.480   -47 38 27.72  7.0249 7.7615 134.1 18.9 .467 101
2024 05 10 00  17 58 32.412   -47 38 25.51  7.0243 7.7613 134.1 18.9 .470 101
2024 05 10 01  17 58 30.342   -47 38 23.30  7.0237 7.7612 134.2 18.9 .473 101
2024 05 10 02  17 58 28.270   -47 38 21.08  7.0231 7.7610 134.2 18.9 .476 101
2024 05 10 03  17 58 26.198   -47 38 18.85  7.0225 7.7609 134.2 18.9 .479 101